QPF
0.00 0.00 0.00 0.00 0.00 0.00 0.00 0.00 0.03 0.01 0.00 0.00 0.00 0.00 0.00 0.00 0.00 0.00 0.00 0.00 0.00 0.00 0.00 0.00 0.00 0.00 0.00 0.00 0.00 0.00 0.00 0.00 0.00 0.00 0.00 0.00 0.01 0.01 0.00 0.01 0.01 0.02 0.06 0.15
0.00 0.00 0.00 0.00 0.00 0.00 0.00 0.00 0.00 0.00 0.00 0.00 0.00 0.00 0.00 0.00 0.00 0.00 0.00 0.00 0.00 0.00 0.00 0.00 0.00 0.00 0.00 0.00 0.00 0.00 0.00 0.00 0.00 0.00 0.00 0.00 0.00 0.00 0.00 0.00 0.00 0.01 0.01 0.02
0.00 0.00 0.00 0.00 0.00 0.00 0.00 0.00 0.00 0.00 0.00 0.00 0.00 0.00 0.00 0.00 0.00 0.00 0.00 0.00 0.00 0.00 0.00 0.00 0.00 0.00 0.00 0.00 0.00 0.00 0.00 0.00 0.00 0.00 0.00 0.00 0.00 0.00 0.00 0.00 0.00 0.00 0.01 0.01
0.00 0.00 0.00 0.00 0.00 0.00 0.00 0.00 0.00 0.00 0.00 0.00 0.00 0.00 0.00 0.00 0.00 0.00 0.00 0.00 0.00 0.00 0.00 0.00 0.00 0.00 0.00 0.00 0.00 0.00 0.00 0.00 0.00 0.00 0.00 0.00 0.00 0.00 0.00 0.00 0.00 0.01 0.02 0.01
0.00 0.00 0.00 0.00 0.00 0.00 0.00 0.00 0.00 0.00 0.00 0.00 0.00 0.00 0.00 0.00 0.00 0.00 0.00 0.00 0.00 0.00 0.00 0.00 0.00 0.00 0.00 0.00 0.00 0.00 0.00 0.00 0.00 0.00 0.00 0.00 0.00 0.00 0.00 0.00 0.00 0.00 0.01 0.02
0.00 0.00 0.00 0.00 0.00 0.00 0.00 0.00 0.00 0.00 0.00 0.00 0.00 0.00 0.00 0.00 0.00 0.00 0.00 0.00 0.00 0.00 0.00 0.00 0.00 0.00 0.00 0.00 0.00 0.00 0.00 0.00 0.00 0.00 0.00 0.00 0.00 0.00 0.00 0.00 0.00 0.01 0.01 0.00
0.00 0.00 0.00 0.00 0.00 0.00 0.00 0.00 0.00 0.00 0.00 0.00 0.00 0.00 0.00 0.00 0.00 0.00 0.00 0.00 0.00 0.00 0.00 0.00 0.00 0.00 0.00 0.00 0.00 0.00 0.00 0.00 0.00 0.00 0.00 0.00 0.00 0.00 0.00 0.00 0.00 0.00 0.01 0.01
0.00 0.00 0.00 0.00 0.00 0.00 0.00 0.00 0.00 0.00 0.00 0.00 0.00 0.00 0.00 0.00 0.00 0.00 0.00 0.00 0.00 0.00 0.00 0.00 0.00 0.00 0.00 0.00 0.00 0.00 0.00 0.00 0.00 0.00 0.00 0.00 0.00 0.00 0.00 0.00 0.00 0.00 0.00 0.01
0.00 0.00 0.00 0.00 0.00 0.00 0.00 0.00 0.00 0.00 0.00 0.00 0.00 0.00 0.00 0.00 0.00 0.00 0.00 0.00 0.00 0.00 0.00 0.00 0.00 0.00 0.00 0.00 0.00 0.00 0.00 0.00 0.00 0.00 0.00 0.00 0.00 0.00 0.00 0.00 0.00 0.00 0.01 0.01
0.00 0.00 0.00 0.00 0.00 0.00 0.00 0.00 0.00 0.00 0.00 0.00 0.00 0.00 0.00 0.00 0.00 0.00 0.00 0.00 0.00 0.00 0.00 0.00 0.00 0.00 0.00 0.00 0.00 0.00 0.00 0.00 0.00 0.00 0.00 0.00 0.00 0.00 0.00 0.00 0.00 0.00 0.01 0.03
0.00 0.00 0.00 0.00 0.00 0.00 0.00 0.00 0.00 0.00 0.00 0.00 0.00 0.00 0.00 0.00 0.00 0.00 0.00 0.00 0.00 0.00 0.00 0.00 0.00 0.00 0.00 0.00 0.00 0.00 0.00 0.00 0.00 0.00 0.00 0.00 0.00 0.00 0.00 0.01 0.01 0.01 0.02 0.03
0.00 0.00 0.00 0.00 0.00 0.00 0.00 0.00 0.00 0.00 0.00 0.00 0.00 0.00 0.00 0.00 0.00 0.00 0.00 0.00 0.00 0.00 0.00 0.00 0.00 0.00 0.00 0.00 0.00 0.00 0.00 0.00 0.00 0.00 0.00 0.00 0.00 0.01 0.02 0.02 0.03 0.03 0.04 0.04
0.00 0.00 0.01 0.01 0.00 0.00 0.00 0.00 0.00 0.00 0.01 0.02 0.00 0.00 0.01 0.01 0.00 0.00 0.00 0.00 0.01 0.01 0.00 0.00 0.00 0.00 0.00 0.00 0.00 0.00 0.00 0.00 0.00 0.01 0.01 0.01 0.01 0.01 0.01 0.03 0.03 0.03 0.04 0.05
0.00 0.02 0.00 0.00 0.00 0.00 0.00 0.00 0.00 0.00 0.01 0.01 0.02 0.01 0.01 0.02 0.01 0.01 0.02 0.02 0.03 0.01 0.00 0.00 0.00 0.00 0.00 0.00 0.00 0.00 0.00 0.00 0.01 0.02 0.05 0.05 0.04 0.02 0.02 0.02 0.03 0.07 0.08 0.06
0.00 0.00 0.00 0.00 0.00 0.00 0.00 0.00 0.00 0.00 0.00 0.00 0.00 0.01 0.02 0.03 0.04 0.02 0.02 0.02 0.01 0.00 0.00 0.00 0.00 0.00 0.00 0.00 0.00 0.00 0.00 0.01 0.02 0.05 0.09 0.06 0.03 0.05 0.05 0.03 0.02 0.03 0.06 0.08
0.00 0.00 0.00 0.00 0.00 0.00 0.00 0.00 0.00 0.00 0.00 0.00 0.00 0.01 0.02 0.03 0.03 0.04 0.04 0.01 0.00 0.00 0.00 0.00 0.00 0.00 0.00 0.00 0.00 0.00 0.00 0.01 0.01 0.02 0.03 0.04 0.04 0.04 0.04 0.04 0.03 0.02 0.01 0.02
0.00 0.00 0.00 0.00 0.00 0.00 0.00 0.00 0.00 0.00 0.00 0.00 0.01 0.02 0.02 0.01 0.01 0.05 0.07 0.03 0.01 0.01 0.00 0.01 0.01 0.00 0.00 0.00 0.00 0.00 0.00 0.01 0.01 0.01 0.02 0.02 0.02 0.03 0.01 0.01 0.01 0.01 0.01 0.00
0.00 0.00 0.00 0.00 0.00 0.00 0.00 0.00 0.00 0.00 0.00 0.01 0.01 0.02 0.03 0.02 0.01 0.01 0.04 0.01 0.01 0.01 0.01 0.01 0.00 0.01 0.01 0.00 0.00 0.00 0.01 0.01 0.01 0.01 0.01 0.02 0.02 0.02 0.01 0.00 0.00 0.00 0.00 0.00
0.00 0.00 0.00 0.00 0.00 0.00 0.00 0.00 0.00 0.00 0.00 0.00 0.01 0.01 0.03 0.05 0.03 0.01 0.01 0.00 0.00 0.00 0.00 0.00 0.00 0.01 0.01 0.01 0.01 0.01 0.02 0.02 0.02 0.02 0.01 0.02 0.02 0.01 0.00 0.00 0.00 0.00 0.00 0.00
0.00 0.00 0.00 0.00 0.00 0.00 0.00 0.00 0.00 0.00 0.00 0.00 0.00 0.00 0.01 0.01 0.01 0.01 0.01 0.01 0.01 0.01 0.00 0.00 0.01 0.01 0.02 0.05 0.04 0.03 0.02 0.02 0.02 0.02 0.02 0.02 0.01 0.00 0.00 0.00 0.00 0.00 0.00 0.00
0.00 0.00 0.00 0.00 0.00 0.00 0.00 0.00 0.00 0.00 0.00 0.00 0.00 0.00 0.01 0.01 0.02 0.03 0.02 0.01 0.00 0.01 0.01 0.01 0.02 0.03 0.04 0.05 0.05 0.03 0.02 0.03 0.03 0.03 0.03 0.02 0.01 0.00 0.00 0.00 0.00 0.00 0.00 0.00
0.00 0.00 0.00 0.00 0.00 0.00 0.00 0.00 0.00 0.00 0.00 0.00 0.00 0.00 0.00 0.00 0.01 0.01 0.03 0.03 0.01 0.01 0.01 0.01 0.02 0.02 0.03 0.04 0.03 0.03 0.03 0.03 0.03 0.03 0.03 0.02 0.00 0.00 0.00 0.00 0.00 0.00 0.00 0.00
0.00 0.00 0.00 0.00 0.00 0.00 0.00 0.00 0.00 0.00 0.00 0.00 0.00 0.00 0.00 0.00 0.02 0.04 0.02 0.01 0.02 0.02 0.02 0.01 0.01 0.01 0.01 0.01 0.02 0.03 0.03 0.03 0.03 0.02 0.02 0.01 0.00 0.00 0.00 0.00 0.00 0.00 0.00 0.00
0.00 0.00 0.00 0.00 0.00 0.00 0.00 0.00 0.00 0.00 0.00 0.00 0.00 0.00 0.00 0.00 0.00 0.01 0.03 0.03 0.03 0.02 0.01 0.01 0.00 0.00 0.01 0.01 0.01 0.02 0.02 0.03 0.03 0.02 0.01 0.00 0.00 0.00 0.00 0.00 0.00 0.00 0.00 0.00
0.00 0.00 0.00 0.00 0.00 0.00 0.00 0.00 0.00 0.00 0.00 0.00 0.00 0.00 0.00 0.00 0.00 0.00 0.02 0.02 0.03 0.03 0.02 0.01 0.00 0.00 0.00 0.01 0.01 0.01 0.02 0.02 0.02 0.01 0.00 0.00 0.00 0.00 0.00 0.00 0.00 0.00 0.00 0.00
0.00 0.00 0.00 0.00 0.00 0.00 0.00 0.00 0.00 0.00 0.00 0.00 0.00 0.00 0.00 0.00 0.00 0.00 0.00 0.01 0.02 0.03 0.03 0.02 0.01 0.01 0.01 0.01 0.01 0.01 0.01 0.01 0.01 0.00 0.00 0.00 0.00 0.00 0.00 0.00 0.00 0.00 0.00 0.00
0.02 0.01 0.00 0.00 0.00 0.00 0.00 0.00 0.00 0.00 0.00 0.00 0.00 0.00 0.00 0.00 0.00 0.00 0.00 0.01 0.02 0.03 0.04 0.04 0.03 0.02 0.02 0.01 0.01 0.00 0.00 0.00 0.00 0.00 0.00 0.00 0.00 0.00 0.00 0.00 0.00 0.00 0.00 0.00
MSLP
1015.97 1016.40 1016.47 1016.23 1016.50 1017.14 1017.42 1017.51 1017.41 1015.74 1015.36 1014.45 1013.81 1013.45 1013.04 1012.70 1012.37 1012.02 1011.60 1011.09 1010.68 1010.34 1010.11 1009.71 1009.32 1008.80 1008.42 1007.99 1007.76 1007.51 1007.06 1006.81 1006.31 1005.53 1005.36 1005.14 1004.98 1004.83 1005.22 1005.20 1005.69 1006.43 1006.37 1006.49
1017.16 1017.31 1017.19 1016.48 1016.49 1016.71 1016.92 1017.11 1016.20 1015.51 1014.85 1014.21 1013.16 1013.04 1012.91 1012.45 1012.16 1011.91 1011.45 1010.72 1010.46 1010.19 1009.91 1009.51 1009.19 1008.80 1008.33 1007.87 1007.47 1007.34 1007.03 1006.67 1006.20 1005.49 1005.05 1004.82 1004.74 1004.89 1004.90 1005.03 1005.44 1006.15 1006.25 1006.15
1018.11 1018.31 1017.82 1016.91 1016.09 1016.07 1016.10 1016.04 1015.91 1015.24 1014.74 1014.17 1013.68 1013.40 1013.21 1012.77 1012.27 1011.81 1011.21 1010.63 1010.28 1009.99 1009.59 1009.11 1008.73 1008.39 1008.13 1007.75 1007.27 1006.96 1006.66 1006.22 1005.99 1005.58 1005.20 1004.66 1004.43 1004.73 1005.02 1005.25 1005.24 1005.93 1006.00 1006.27
1019.50 1019.37 1018.83 1016.36 1016.04 1016.12 1016.16 1015.94 1015.43 1015.02 1014.33 1014.11 1014.03 1013.57 1013.13 1012.55 1012.12 1011.54 1011.06 1010.50 1009.93 1009.50 1009.07 1008.71 1008.32 1007.97 1007.62 1007.29 1007.05 1006.75 1006.36 1005.94 1005.55 1005.34 1005.18 1005.09 1004.71 1004.56 1004.83 1005.40 1005.49 1005.53 1006.07 1006.17
1020.92 1020.65 1019.02 1016.97 1015.99 1015.94 1015.92 1015.47 1014.74 1014.56 1014.47 1014.15 1014.15 1013.75 1012.72 1011.98 1011.74 1011.42 1010.86 1010.32 1009.67 1009.07 1008.53 1008.12 1007.85 1007.33 1007.23 1006.97 1006.68 1006.50 1006.05 1005.76 1005.61 1005.58 1005.44 1005.22 1004.86 1004.67 1004.89 1005.10 1005.51 1005.60 1005.96 1006.36
1021.75 1021.63 1019.89 1017.01 1016.04 1015.68 1015.88 1015.48 1014.93 1015.19 1015.07 1014.71 1014.34 1013.90 1012.40 1011.76 1011.25 1010.71 1010.11 1009.55 1008.99 1008.45 1007.95 1007.59 1006.94 1006.68 1006.80 1006.52 1006.26 1006.05 1005.74 1005.42 1005.53 1005.88 1005.53 1005.48 1005.51 1005.22 1004.95 1005.00 1005.15 1005.86 1006.27 1006.62
1021.71 1021.35 1019.28 1016.84 1015.98 1016.04 1016.55 1015.95 1015.12 1014.99 1014.83 1014.54 1014.26 1013.46 1012.08 1011.42 1010.74 1010.16 1009.55 1008.86 1008.23 1007.75 1007.37 1006.85 1006.36 1006.23 1006.21 1005.98 1005.77 1005.38 1005.16 1005.24 1005.51 1005.67 1005.80 1005.48 1005.25 1005.07 1005.05 1005.07 1005.25 1005.82 1006.10 1006.53
1021.23 1020.99 1019.27 1016.71 1016.56 1016.75 1016.11 1015.13 1015.31 1014.70 1014.45 1013.99 1013.34 1012.46 1011.83 1011.06 1010.13 1009.41 1008.78 1008.12 1007.57 1007.10 1006.51 1006.03 1005.73 1005.78 1005.56 1005.39 1004.86 1005.09 1005.30 1005.30 1005.42 1005.42 1005.45 1005.60 1005.27 1004.90 1004.95 1004.97 1005.48 1005.86 1006.20 1006.78
1019.29 1018.10 1017.03 1016.37 1016.29 1015.96 1015.70 1015.20 1014.84 1014.43 1013.86 1013.44 1012.56 1011.72 1010.96 1010.10 1009.50 1008.63 1007.99 1007.30 1006.91 1006.40 1005.74 1005.35 1005.19 1005.20 1004.98 1004.40 1004.61 1004.89 1005.02 1005.14 1005.31 1005.39 1005.25 1005.09 1005.02 1005.09 1005.24 1005.15 1005.38 1005.71 1006.24 1006.65
1018.16 1017.03 1016.49 1016.07 1015.65 1015.37 1015.30 1014.94 1014.40 1014.08 1013.43 1012.78 1011.96 1011.42 1010.39 1009.72 1008.87 1008.18 1007.49 1006.81 1006.29 1005.74 1005.15 1004.63 1004.53 1004.29 1004.15 1004.01 1004.18 1004.40 1004.67 1004.76 1004.81 1005.04 1004.88 1004.81 1004.73 1004.70 1004.86 1004.98 1005.14 1005.50 1006.08 1006.42
1017.09 1016.40 1015.84 1015.46 1015.41 1015.23 1014.76 1014.48 1014.07 1013.60 1013.24 1012.61 1011.90 1010.99 1010.34 1009.40 1008.60 1007.78 1006.91 1006.20 1005.66 1005.09 1004.46 1004.07 1003.95 1003.77 1003.38 1003.49 1003.87 1004.03 1004.22 1004.39 1004.39 1004.68 1004.54 1004.56 1004.77 1004.61 1004.50 1004.44 1004.49 1004.73 1005.19 1005.81
1016.21 1015.69 1015.73 1015.39 1015.12 1014.85 1014.69 1014.37 1013.98 1013.47 1012.73 1012.15 1011.65 1010.72 1009.93 1008.90 1008.00 1007.09 1006.21 1005.74 1005.12 1004.68 1004.41 1003.84 1003.53 1003.09 1002.87 1003.27 1003.54 1003.97 1004.19 1004.28 1004.31 1004.36 1004.36 1004.72 1004.85 1004.80 1004.67 1004.66 1004.79 1005.05 1005.43 1005.84
1015.38 1015.23 1015.29 1015.07 1014.95 1014.86 1014.72 1014.37 1013.83 1013.25 1012.65 1011.83 1010.96 1010.28 1009.46 1008.42 1007.55 1006.52 1005.70 1004.95 1004.36 1004.02 1003.81 1003.48 1003.14 1002.77 1002.66 1002.98 1003.38 1003.54 1003.88 1004.10 1004.15 1004.30 1004.60 1004.87 1005.03 1005.03 1005.16 1005.39 1005.39 1005.60 1005.96 1006.34
1014.62 1014.86 1014.97 1014.86 1014.95 1014.89 1014.72 1014.20 1013.74 1013.11 1012.38 1011.55 1010.78 1009.95 1009.10 1008.04 1006.94 1005.88 1004.89 1004.14 1003.74 1003.58 1003.41 1003.25 1002.93 1002.57 1002.57 1002.71 1003.22 1003.55 1003.77 1003.93 1004.24 1004.58 1004.87 1005.14 1005.31 1005.45 1005.61 1005.76 1006.06 1006.44 1006.81 1007.14
1014.25 1014.53 1014.82 1014.88 1014.94 1014.80 1014.64 1014.19 1013.42 1012.70 1011.94 1010.98 1010.20 1009.44 1008.59 1007.59 1006.61 1005.41 1004.38 1003.77 1003.42 1003.27 1003.11 1002.98 1002.68 1002.32 1002.42 1002.66 1003.04 1003.43 1003.80 1004.12 1004.51 1004.83 1005.12 1005.35 1005.68 1005.94 1006.09 1006.42 1006.78 1007.09 1007.57 1008.20
1014.12 1014.44 1014.64 1014.82 1014.82 1014.75 1014.40 1013.89 1013.39 1012.53 1011.74 1010.90 1010.11 1009.21 1008.34 1007.45 1006.35 1005.16 1004.11 1003.56 1003.30 1003.03 1002.91 1002.73 1002.60 1002.52 1002.61 1002.83 1003.18 1003.46 1003.90 1004.29 1004.73 1005.07 1005.43 1005.72 1005.95 1006.28 1006.68 1007.05 1007.41 1007.73 1008.21 1008.72
1014.08 1014.30 1014.49 1014.77 1014.71 1014.48 1014.29 1013.91 1013.36 1012.60 1011.75 1011.10 1010.20 1009.27 1008.23 1007.13 1006.20 1005.21 1004.28 1003.78 1003.54 1003.35 1003.12 1002.96 1002.87 1002.79 1002.88 1003.06 1003.33 1003.62 1004.06 1004.60 1004.93 1005.31 1005.71 1005.99 1006.28 1006.72 1007.20 1007.58 1008.00 1008.44 1008.84 1009.38
1013.62 1013.98 1014.43 1014.66 1014.66 1014.49 1014.00 1013.54 1013.03 1012.53 1011.89 1011.16 1010.31 1009.30 1008.27 1007.27 1006.41 1005.47 1004.69 1004.10 1003.73 1003.47 1003.27 1003.07 1002.98 1002.97 1002.98 1003.04 1003.30 1003.67 1004.16 1004.72 1005.11 1005.43 1005.90 1006.32 1006.76 1007.15 1007.62 1008.10 1008.58 1009.11 1009.79 1010.28
1013.41 1013.86 1014.02 1014.08 1014.06 1014.08 1013.83 1013.42 1013.02 1012.54 1011.88 1011.23 1010.39 1009.41 1008.50 1007.56 1006.71 1005.83 1004.96 1004.35 1003.88 1003.54 1003.27 1003.17 1003.03 1002.95 1002.91 1002.92 1003.09 1003.46 1004.00 1004.65 1005.14 1005.59 1006.04 1006.57 1007.13 1007.60 1008.15 1008.75 1009.28 1009.73 1010.31 1011.02
1013.18 1013.40 1013.48 1013.61 1013.65 1013.69 1013.65 1013.30 1013.03 1012.62 1011.99 1011.39 1010.62 1009.64 1008.60 1007.62 1006.76 1005.96 1005.20 1004.62 1004.18 1003.84 1003.46 1003.20 1003.02 1002.84 1002.77 1002.83 1003.09 1003.47 1004.00 1004.54 1005.04 1005.57 1006.11 1006.69 1007.27 1007.83 1008.44 1009.01 1009.53 1010.08 1010.73 1011.43
1012.70 1012.91 1013.20 1013.39 1013.43 1013.45 1013.31 1013.17 1012.99 1012.60 1012.00 1011.52 1010.90 1010.07 1009.16 1008.05 1007.00 1006.11 1005.36 1004.74 1004.12 1003.88 1003.57 1003.27 1003.03 1002.82 1002.68 1002.75 1003.03 1003.42 1003.90 1004.43 1004.93 1005.40 1005.99 1006.60 1007.31 1007.93 1008.53 1009.11 1009.69 1010.30 1010.96 1011.59
1012.33 1012.79 1012.97 1013.10 1013.33 1013.19 1013.00 1013.00 1012.84 1012.50 1012.11 1011.60 1010.95 1010.13 1009.27 1008.23 1007.21 1006.23 1005.55 1005.20 1004.39 1004.00 1003.66 1003.35 1003.11 1002.86 1002.78 1002.83 1003.07 1003.40 1003.81 1004.27 1004.74 1005.25 1005.82 1006.43 1007.07 1007.78 1008.44 1009.12 1009.74 1010.31 1010.92 1011.52
1011.82 1012.16 1012.39 1012.71 1012.85 1012.75 1012.65 1012.59 1012.56 1012.42 1011.91 1011.38 1010.82 1010.17 1009.58 1008.76 1007.76 1006.61 1005.39 1004.82 1004.42 1003.94 1003.65 1003.38 1003.11 1002.99 1003.04 1003.18 1003.27 1003.49 1003.80 1004.20 1004.66 1005.11 1005.62 1006.19 1006.80 1007.47 1008.17 1008.90 1009.55 1010.15 1010.78 1011.43
1011.22 1011.59 1011.86 1011.84 1012.09 1012.34 1012.45 1011.82 1011.89 1011.52 1011.40 1011.01 1010.52 1010.11 1009.74 1008.70 1007.72 1007.03 1006.19 1005.12 1004.31 1003.84 1003.50 1003.32 1003.17 1003.11 1003.38 1003.47 1003.44 1003.59 1003.86 1004.21 1004.61 1005.05 1005.56 1006.11 1006.71 1007.31 1007.97 1008.65 1009.36 1009.98 1010.58 1011.23
1010.55 1010.96 1011.24 1011.43 1011.68 1011.60 1011.36 1011.34 1011.48 1011.47 1011.36 1010.84 1010.32 1009.80 1009.42 1008.92 1008.46 1007.02 1006.29 1005.30 1004.32 1003.70 1003.27 1003.10 1003.02 1003.04 1003.19 1003.40 1003.55 1003.67 1003.87 1004.20 1004.58 1005.09 1005.61 1006.18 1006.76 1007.32 1007.90 1008.44 1009.05 1009.71 1010.34 1010.89
1010.30 1010.53 1010.75 1010.81 1010.74 1010.84 1010.96 1011.17 1011.33 1011.39 1011.25 1010.88 1010.35 1009.67 1009.17 1008.59 1007.92 1007.11 1006.22 1005.37 1004.41 1003.61 1003.08 1002.76 1002.81 1002.86 1002.83 1002.98 1003.27 1003.59 1003.83 1004.19 1004.62 1005.10 1005.50 1006.01 1006.56 1007.14 1007.68 1008.19 1008.77 1009.37 1009.95 1010.52
1010.23 1010.27 1010.29 1010.33 1010.44 1010.57 1010.59 1011.03 1011.34 1011.35 1011.17 1010.83 1010.29 1009.59 1008.99 1008.41 1007.76 1007.07 1006.24 1005.42 1004.56 1003.63 1002.89 1002.41 1002.25 1002.35 1002.38 1002.49 1002.79 1003.25 1003.62 1003.92 1004.25 1004.68 1005.11 1005.61 1006.07 1006.57 1007.15 1007.71 1008.28 1008.86 1009.51 1010.19
Thickness
5485 5472 5471 5474 5471 5465 5451 5440 5421 5447 5432 5441 5441 5435 5431 5435 5438 5437 5438 5440 5440 5440 5440 5443 5446 5448 5449 5452 5452 5452 5455 5455 5461 5472 5476 5479 5482 5484 5483 5484 5481 5478 5481 5485
5449 5455 5453 5457 5462 5449 5439 5430 5424 5422 5413 5426 5430 5423 5417 5424 5425 5423 5425 5428 5426 5426 5427 5430 5431 5433 5436 5439 5440 5438 5440 5444 5447 5455 5463 5468 5471 5471 5472 5471 5470 5466 5465 5472
5436 5436 5433 5423 5450 5437 5423 5427 5417 5402 5405 5404 5401 5401 5400 5400 5402 5407 5411 5415 5414 5414 5416 5418 5420 5422 5423 5425 5428 5431 5433 5437 5439 5442 5446 5454 5459 5459 5458 5458 5461 5454 5455 5454
5394 5408 5345 5436 5432 5418 5405 5406 5406 5396 5397 5391 5387 5381 5381 5386 5384 5389 5392 5395 5400 5400 5402 5405 5407 5410 5411 5413 5415 5417 5422 5426 5429 5430 5432 5433 5442 5445 5446 5444 5446 5447 5445 5446
5335 5362 5385 5415 5411 5406 5391 5392 5400 5390 5384 5374 5371 5365 5374 5384 5379 5378 5379 5382 5386 5389 5390 5393 5394 5399 5396 5399 5402 5403 5410 5411 5412 5413 5414 5416 5422 5429 5431 5433 5433 5435 5434 5434
5323 5298 5303 5400 5404 5392 5377 5359 5380 5364 5358 5356 5352 5344 5366 5374 5372 5372 5373 5374 5376 5379 5382 5380 5388 5388 5384 5387 5389 5393 5396 5397 5397 5395 5400 5402 5402 5408 5414 5419 5421 5418 5417 5419
5310 5299 5347 5386 5383 5376 5348 5357 5355 5355 5349 5340 5335 5341 5351 5357 5358 5359 5360 5363 5368 5369 5369 5374 5379 5376 5374 5376 5378 5383 5383 5381 5380 5380 5381 5386 5390 5395 5398 5404 5407 5406 5406 5406
5301 5257 5308 5366 5363 5354 5351 5358 5345 5346 5342 5338 5340 5344 5345 5348 5352 5354 5355 5357 5359 5357 5361 5365 5366 5361 5363 5364 5371 5368 5366 5365 5364 5366 5369 5371 5375 5380 5385 5389 5389 5390 5391 5391
5334 5342 5360 5358 5350 5347 5343 5344 5343 5341 5342 5338 5342 5346 5348 5350 5351 5354 5355 5357 5357 5357 5361 5363 5361 5357 5358 5365 5360 5357 5355 5354 5353 5353 5355 5361 5365 5366 5369 5375 5378 5379 5378 5379
5341 5356 5350 5349 5350 5347 5342 5341 5340 5337 5338 5338 5339 5338 5341 5342 5345 5345 5346 5347 5349 5350 5354 5358 5357 5356 5355 5357 5353 5350 5345 5344 5342 5343 5347 5351 5355 5358 5360 5363 5366 5368 5368 5368
5339 5347 5346 5348 5346 5341 5343 5340 5338 5336 5330 5330 5330 5333 5332 5334 5336 5337 5340 5342 5343 5345 5349 5352 5350 5351 5354 5350 5346 5341 5334 5333 5338 5337 5342 5345 5346 5350 5354 5357 5360 5361 5362 5362
5324 5340 5338 5344 5343 5338 5332 5329 5326 5324 5325 5326 5325 5326 5327 5331 5333 5334 5335 5333 5335 5336 5337 5343 5344 5351 5350 5346 5342 5336 5331 5330 5333 5336 5338 5337 5337 5338 5342 5345 5347 5348 5349 5350
5338 5343 5342 5339 5334 5330 5323 5320 5319 5322 5320 5320 5324 5325 5326 5327 5326 5326 5323 5324 5328 5331 5332 5339 5342 5345 5344 5344 5340 5338 5334 5332 5333 5333 5332 5330 5329 5330 5330 5331 5333 5333 5333 5333
5341 5340 5332 5334 5326 5322 5317 5316 5315 5316 5319 5320 5320 5321 5321 5322 5323 5320 5320 5322 5327 5328 5328 5329 5332 5340 5340 5341 5337 5335 5332 5331 5329 5326 5324 5322 5321 5322 5321 5321 5319 5318 5316 5316
5339 5337 5332 5326 5318 5315 5311 5309 5313 5314 5317 5321 5322 5321 5320 5321 5319 5322 5325 5326 5328 5326 5328 5331 5336 5339 5338 5337 5335 5332 5329 5326 5321 5320 5319 5317 5316 5315 5313 5309 5306 5305 5303 5302
5335 5330 5325 5319 5313 5310 5308 5306 5307 5312 5314 5315 5316 5318 5317 5317 5319 5324 5327 5328 5327 5330 5331 5331 5332 5334 5334 5333 5331 5329 5326 5321 5317 5317 5315 5314 5313 5311 5309 5306 5304 5303 5301 5300
5322 5324 5321 5316 5312 5311 5307 5305 5304 5307 5309 5307 5309 5311 5313 5316 5319 5323 5326 5325 5325 5325 5326 5327 5329 5330 5330 5330 5328 5326 5323 5317 5315 5313 5310 5310 5309 5307 5305 5303 5301 5300 5299 5297
5325 5320 5313 5308 5302 5302 5305 5305 5303 5302 5303 5304 5305 5306 5309 5312 5314 5318 5321 5322 5323 5324 5325 5326 5327 5327 5327 5328 5326 5323 5319 5314 5312 5311 5307 5306 5303 5302 5301 5299 5296 5295 5289 5287
5319 5314 5309 5305 5302 5298 5297 5299 5298 5298 5299 5298 5300 5303 5305 5307 5308 5312 5317 5320 5322 5324 5323 5322 5324 5324 5324 5324 5324 5321 5317 5312 5309 5306 5304 5300 5298 5296 5294 5291 5289 5289 5286 5281
5314 5310 5307 5304 5301 5296 5294 5294 5291 5290 5294 5292 5295 5299 5301 5305 5307 5308 5311 5313 5315 5316 5316 5317 5318 5319 5320 5319 5317 5315 5311 5308 5305 5302 5298 5295 5292 5290 5287 5284 5284 5283 5280 5275
5310 5307 5302 5298 5295 5289 5282 5281 5278 5280 5285 5285 5286 5290 5293 5298 5303 5305 5307 5308 5312 5310 5311 5312 5313 5314 5315 5314 5312 5309 5306 5303 5300 5298 5295 5291 5287 5285 5283 5280 5278 5275 5270 5267
5303 5294 5289 5283 5280 5279 5277 5273 5273 5269 5267 5278 5280 5282 5286 5290 5296 5301 5302 5301 5305 5305 5306 5307 5308 5309 5309 5308 5306 5304 5302 5299 5297 5294 5292 5289 5286 5283 5280 5277 5274 5271 5268 5264
5291 5284 5280 5269 5267 5271 5265 5262 5258 5257 5258 5264 5266 5268 5273 5278 5283 5292 5300 5302 5301 5302 5302 5303 5303 5302 5300 5299 5299 5298 5297 5295 5293 5292 5290 5288 5285 5282 5278 5274 5270 5267 5262 5259
5282 5274 5268 5266 5256 5252 5253 5259 5253 5255 5250 5252 5253 5253 5255 5267 5274 5277 5284 5292 5296 5296 5297 5298 5298 5298 5293 5292 5293 5294 5293 5292 5290 5289 5286 5283 5280 5277 5274 5270 5266 5263 5259 5255
5276 5270 5260 5251 5252 5252 5248 5247 5248 5238 5237 5240 5240 5244 5246 5248 5249 5266 5270 5279 5287 5290 5292 5292 5293 5293 5292 5288 5288 5289 5289 5288 5285 5282 5278 5274 5272 5270 5268 5266 5263 5259 5255 5252
5262 5257 5250 5246 5242 5236 5231 5233 5229 5219 5218 5218 5222 5224 5227 5231 5237 5244 5254 5263 5273 5280 5284 5287 5285 5286 5288 5287 5285 5284 5283 5281 5278 5276 5274 5272 5269 5267 5264 5261 5258 5255 5252 5248
5245 5237 5234 5231 5224 5219 5218 5211 5205 5200 5199 5197 5200 5206 5210 5213 5217 5223 5232 5244 5255 5265 5272 5277 5279 5279 5281 5282 5280 5278 5276 5275 5273 5272 5270 5268 5266 5264 5260 5257 5255 5252 5247 5242